Regional Weather Roundup
Issued by NWS Jackson, KY

Home | Current Version | Previous Version | Graphics & Text | Print | Product List | Glossary On
Versions: 1 2 3 4 5 6 7 8 9 10 11 12 13 14 15 16 17 18 19 20 21 22 23 24 25 26 27 28 29 30 31 32 33 34 35 36 37 38 39 40 41 42 43 44 45 46 47 48 49 50
000
ASUS43 KJKL 200310
RWRJKL

EAST KENTUCKY HOURLY WEATHER ROUNDUP
NATIONAL WEATHER SERVICE JACKSON KY
1100 PM EDT WED JUL 19 2017

NOTE: "FAIR" INDICATES FEW OR NO CLOUDS BELOW 12,000 FEET WITH
NO SIGNIFICANT WEATHER AND/OR OBSTRUCTIONS TO VISIBILITY.

* THESE REPORTS ARE NOT UNDER NWS QUALITY CONTROL AND MAY NOT
  REPORT WEATHER SUCH AS PRECIPITATION AND FOG.

KYZ079-080-083-085-087-088-110-112-115-119-120-200400
...EASTERN KENTUCKY...

CITY           SKY/WX    TMP DP  RH WIND       PRES   REMARKS
JACKSON        CLEAR     78  65  63 CALM      30.14R
LONDON         CLEAR     73  66  78 CALM      30.14R
SOMERSET*      CLEAR     73  68  83 CALM      30.14R
MONTICELLO*    CLEAR     72  70  93 W12       30.14S
WILLIAMSBURG*  CLEAR     73  70  88 CALM      30.14R
MIDDLESBORO*   CLEAR     74  66  77 CALM      30.15R
HARLAN APT*    PTCLDY    73  68  83 CALM      30.16S
PIKE CO APT*   MOCLDY    78  69  72 CALM      30.14S
BIG SANDY APT* CLOUDY    78  72  80 CALM      30.13S
MOREHEAD APT*  PTCLDY    73  66  78 S3        30.13R
ASHLAND*         N/A    N/A N/A N/A MISG        N/A
$$

KYZ035-036-041-042-044-050-067-078-099-200400
...CENTRAL KENTUCKY...

CITY           SKY/WX    TMP DP  RH WIND       PRES   REMARKS
MT STERLING*   CLEAR     72  70  94 CALM      30.13S
FLEMING/MASON* CLEAR     77  67  70 CALM      30.12R
DANVILLE*      CLEAR     73  68  83 CALM      30.13R
LEXINGTON      CLEAR     76  67  73 CALM      30.12R
FRANKFORT      CLEAR     76  67  73 CALM      30.10R
LOUISVILLE     CLEAR     84  68  58 CALM      30.09R
LEBANON*         N/A     79  68  69 CALM      30.11S
GLASGOW*       CLEAR     76  75  95 CALM      30.11R
BOWLING GREEN  CLEAR     80  74  81 S5        30.10R
$$

KYZ091>093-OHZ055-061-077-WVZ005-015-034-035-042-200400
...SOUTHERN OHIO/WEST VIRGINIA...

CITY           SKY/WX    TMP DP  RH WIND       PRES   REMARKS
COVINGTON      CLEAR     72  67  84 CALM      30.10R
COLUMBUS       CLEAR     80  68  66 NW6       30.08R
DAYTON         CLEAR     76  68  76 SW6       30.11R
WILMINGTON     CLEAR     71  70  96 CALM      30.10S
HUNTINGTON     CLEAR     79  69  71 CALM      30.09S
CHARLESTON     CLEAR     77  71  82 CALM      30.10S
PINEVILLE*       N/A     69  67  93 MISG      30.21S FOG
BECKLEY        CLEAR     73  62  68 S3        30.20S
BLUEFIELD      CLEAR     72  61  68 CALM      30.24R
LOGAN CO APT*    N/A     77  70  78 CALM      30.15S
$$

VAZ002-007-008-TNZ017-027-036-066-071-200400
...SOUTHWEST VIRGINIA/EAST TENNESSEE...

CITY           SKY/WX    TMP DP  RH WIND       PRES   REMARKS
WISE*          CLEAR     75  61  60 CALM      30.23S
JONESVILLE*    MOCLDY    73  68  83 CALM      30.17R
ABINGDON*      CLEAR     74  67  79 CALM      30.18S
BRISTOL        PTCLDY    73  66  78 CALM      30.14R
MORRISTOWN*    PTCLDY    77  70  78 CALM      30.13R
SEVIERVILLE*   MOCLDY    77  66  69 CALM      30.12R
KNOXVILLE      PTCLDY    83  65  54 N6        30.11R
LAFOLLETTE*      N/A     73  70  88 CALM      30.17R
OAK RIDGE      CLEAR     77  69  76 CALM      30.13R
CROSSVILLE     CLEAR     73  68  84 CALM      30.19R
NASHVILLE      PTCLDY    79  73  82 S3        30.11S
$$

...KEY TO REMARKS...
VSB - VISIBILITY IN MILES
WCI - WIND CHILL INDEX
HX  - HEAT INDEX

$$



USA.gov is the U.S. government's official web portal to all federal, state and local government web resources and services.